Weather History for Cheraw, SC

Change the Weather History Date:

Saturday, June 1, 2013

  Actual Average (KFLO) Record (KFLO)
Temperature  
Mean Temperature 75 °F 75 °F  
Max Temperature 86 °F 86 °F 102 °F (1953)
Min Temperature 64 °F 65 °F 48 °F (1966)
Degree Days  
Heating Degree Days 0 0  
Month to date heating degree days 0  
Since 1 June heating degree days 0  
Since 1 July heating degree days 2523  
Cooling Degree Days 10 10  
Month to date cooling degree days 10  
Year to date cooling degree days 317  
Since 1 June cooling degree days 10  
Growing Degree Days 25 (Base 50)    
Moisture  
Dew Point 64 °F    
Average Humidity 71    
Maximum Humidity 100    
Minimum Humidity 35    
Precipitation  
Precipitation 0.00 in 0.15 in 1.81 in (1956)
Month to date precipitation 0.15  
Year to date precipitation 15.51  
Sea Level Pressure  
Sea Level Pressure 30.11 in    
Wind  
Wind Speed - (North)    
Max Wind Speed -    
Max Gust Speed -    
Visibility 9 miles    
Events      
T = Trace of Precipitation, MM = Missing Value Source: NWS Daily Summary

Daily Weather History Graph

Daily Weather History Graph

Search for Another Location

Airport:

Trip Planner

Search our weather history database for the weather conditions in past years. The results will help you decide how hot, cold, wet, or windy it might be!

Date:

Astronomy

Jun. 01, 2013 Rise Set
Actual Time 6:07 AM EDT 8:27 PM EDT
Civil Twilight 5:38 AM EDT 8:57 PM EDT
Nautical Twilight 5:03 AM EDT 9:32 PM EDT
Astronomical Twilight 4:24 AM EDT 10:11 PM EDT
Moon 1:47 AM EDT (6/1) 2:09 PM EDT (6/1)
Length of Visible Light 15h 18m
Length of Day
14h 20m
Last Quarter, 41% of the Moon is Illuminated
Jun 1
Last Quarter
Jun 8
New
Jun 16
First Quarter
Jun 23
Full
Jun 30
Last Quarter

Hourly Weather History & Observations

Time (EDT) Temp. Heat Index Dew Point Humidity Pressure Visibility Wind Dir Wind Speed Gust Speed Precip Events Conditions
12:15 AM 71.6 °F - 66.2 °F 83% 30.15 in 10.0 mi North - - N/A   Clear
12:35 AM 71.6 °F - 66.2 °F 83% 30.16 in 10.0 mi North - - N/A   Clear
12:55 AM 69.8 °F - 66.2 °F 88% 30.15 in 10.0 mi North - - N/A   Clear
1:15 AM 69.8 °F - 66.2 °F 88% 30.15 in 10.0 mi North - - N/A   Clear
1:35 AM 68.0 °F - 66.2 °F 94% 30.14 in 10.0 mi North - - N/A   Clear
1:55 AM 68.0 °F - 66.2 °F 94% 30.14 in 10.0 mi North - - N/A   Clear
2:15 AM 68.0 °F - 66.2 °F 94% 30.13 in 10.0 mi North - - N/A   Clear
2:35 AM 68.0 °F - 66.2 °F 94% 30.14 in 10.0 mi North - - N/A   Clear
2:55 AM 68.0 °F - 66.2 °F 94% 30.13 in 10.0 mi North - - N/A   Clear
3:15 AM 66.2 °F - 66.2 °F 100% 30.13 in 10.0 mi North - - N/A   Clear
3:35 AM 66.2 °F - 66.2 °F 100% 30.14 in 10.0 mi North - - N/A   Clear
3:55 AM 66.2 °F - 66.2 °F 100% 30.14 in 10.0 mi North - - N/A   Clear
4:15 AM 66.2 °F - 66.2 °F 100% 30.14 in 10.0 mi North - - N/A   Clear
4:35 AM 66.2 °F - 66.2 °F 100% 30.15 in 9.0 mi North - - N/A   Clear
4:55 AM 64.4 °F - 64.4 °F 100% 30.15 in 3.0 mi North - - N/A   Scattered Clouds
5:15 AM 64.4 °F - 64.4 °F 100% 30.15 in 1.0 mi North - - N/A   Overcast
5:35 AM 66.2 °F - 66.2 °F 100% 30.16 in 8.0 mi North - - N/A   Overcast
5:55 AM 66.2 °F - 66.2 °F 100% 30.16 in 4.0 mi North - - N/A   Overcast
6:15 AM 66.2 °F - 66.2 °F 100% 30.16 in 3.0 mi North - - N/A   Overcast
6:35 AM 68.0 °F - 68.0 °F 100% 30.16 in 4.0 mi North - - N/A   Overcast
6:55 AM 68.0 °F - 68.0 °F 100% 30.16 in 4.0 mi North - - N/A   Overcast
7:15 AM 68.0 °F - 68.0 °F 100% 30.16 in 5.0 mi North - - N/A   Overcast
7:35 AM 68.0 °F - 68.0 °F 100% 30.16 in 5.0 mi North - - N/A   Overcast
7:55 AM 68.0 °F - 68.0 °F 100% 30.16 in 7.0 mi North - - N/A   Overcast
8:15 AM 69.8 °F - 69.8 °F 100% 30.17 in 9.0 mi North - - N/A   Overcast
8:35 AM 71.6 °F - 68.0 °F 88% 30.16 in 10.0 mi North - - N/A   Mostly Cloudy
8:55 AM 73.4 °F - 68.0 °F 83% 30.16 in 10.0 mi North - - N/A   Scattered Clouds
9:15 AM 75.2 °F - 68.0 °F 78% 30.16 in 10.0 mi North - - N/A   Partly Cloudy
9:35 AM 77.0 °F - 68.0 °F 74% 30.16 in 10.0 mi North - - N/A   Scattered Clouds
9:55 AM 75.2 °F - 68.0 °F 78% 30.16 in 10.0 mi North - - N/A   Mostly Cloudy
10:15 AM 77.0 °F - 68.0 °F 74% 30.15 in 10.0 mi North - - N/A   Scattered Clouds
10:35 AM 77.0 °F - 66.2 °F 69% 30.15 in 10.0 mi North - - N/A   Scattered Clouds
10:55 AM 77.0 °F - 66.2 °F 69% 30.15 in 10.0 mi North - - N/A   Partly Cloudy
11:15 AM 78.8 °F - 66.2 °F 65% 30.15 in 10.0 mi North - - N/A   Partly Cloudy
11:35 AM 80.6 °F 82.7 °F 66.2 °F 61% 30.15 in 10.0 mi North - - N/A   Partly Cloudy
11:55 AM 80.6 °F 82.7 °F 66.2 °F 61% 30.14 in 10.0 mi North - - N/A   Clear
12:15 PM 80.6 °F 82.3 °F 64.4 °F 58% 30.14 in 10.0 mi North - - N/A   Scattered Clouds
12:35 PM 82.4 °F 83.9 °F 64.4 °F 54% 30.13 in 10.0 mi North - - N/A   Scattered Clouds
12:55 PM 82.4 °F 83.9 °F 64.4 °F 54% 30.13 in 10.0 mi North - - N/A   Scattered Clouds
1:15 PM 84.2 °F 85.6 °F 64.4 °F 51% 30.13 in 10.0 mi North - - N/A   Partly Cloudy
1:35 PM 82.4 °F 83.9 °F 64.4 °F 54% 30.12 in 10.0 mi North - - N/A   Clear
1:55 PM 82.4 °F 83.4 °F 62.6 °F 51% 30.12 in 10.0 mi North - - N/A   Scattered Clouds
2:15 PM 84.2 °F 85.0 °F 62.6 °F 48% 30.10 in 10.0 mi North - - N/A   Scattered Clouds
2:35 PM 84.2 °F 85.0 °F 62.6 °F 48% 30.10 in 10.0 mi North - - N/A   Partly Cloudy
2:55 PM 84.2 °F 85.0 °F 62.6 °F 48% 30.09 in 10.0 mi North - - N/A   Partly Cloudy
3:15 PM 86.0 °F 86.1 °F 60.8 °F 43% 30.08 in 10.0 mi North - - N/A   Partly Cloudy
3:35 PM 86.0 °F 85.4 °F 59.0 °F 40% 30.07 in 10.0 mi North - - N/A   Clear
3:55 PM 86.0 °F 85.4 °F 59.0 °F 40% 30.07 in 10.0 mi North - - N/A   Clear
4:15 PM 86.0 °F 85.4 °F 59.0 °F 40% 30.06 in 10.0 mi North - - N/A   Clear
4:35 PM 86.0 °F 86.1 °F 60.8 °F 43% 30.06 in 10.0 mi North - - N/A   Partly Cloudy
4:55 PM 86.0 °F 86.1 °F 60.8 °F 43% 30.06 in 10.0 mi North - - N/A   Clear
5:15 PM 86.0 °F 86.1 °F 60.8 °F 43% 30.05 in 10.0 mi North - - N/A   Clear
5:35 PM 86.0 °F 85.4 °F 59.0 °F 40% 30.05 in 10.0 mi North - - N/A   Clear
5:55 PM 86.0 °F 86.1 °F 60.8 °F 43% 30.05 in 10.0 mi North - - N/A   Clear
6:15 PM 86.0 °F 85.4 °F 59.0 °F 40% 30.05 in 10.0 mi North - - N/A   Clear
6:35 PM 86.0 °F 84.5 °F 55.4 °F 35% 30.05 in 10.0 mi North - - N/A   Clear
6:55 PM 86.0 °F 84.5 °F 55.4 °F 35% 30.05 in 10.0 mi North - - N/A   Clear
7:15 PM 84.2 °F 83.0 °F 55.4 °F 37% 30.04 in 10.0 mi North - - N/A   Clear
7:35 PM 84.2 °F 83.5 °F 57.2 °F 40% 30.04 in 10.0 mi North - - N/A   Clear
7:55 PM 82.4 °F 82.5 °F 59.0 °F 45% 30.04 in 10.0 mi North - - N/A   Clear
8:15 PM 80.6 °F 81.8 °F 62.6 °F 54% 30.04 in 10.0 mi North - - N/A   Clear
8:35 PM 78.8 °F - 64.4 °F 61% 30.04 in 10.0 mi North - - N/A   Clear
8:55 PM 77.0 °F - 66.2 °F 69% 30.04 in 10.0 mi North - - N/A   Clear
9:15 PM 77.0 °F - 66.2 °F 69% 30.05 in 10.0 mi North - - N/A   Clear
9:35 PM 75.2 °F - 66.2 °F 73% 30.05 in 10.0 mi North - - N/A   Clear
9:55 PM 75.2 °F - 66.2 °F 73% 30.06 in 10.0 mi North - - N/A   Clear
10:15 PM 75.2 °F - 66.2 °F 73% 30.07 in 10.0 mi North - - N/A   Clear
10:35 PM 75.2 °F - 66.2 °F 73% 30.07 in 10.0 mi North - - N/A   Clear
10:55 PM 73.4 °F - 66.2 °F 78% 30.08 in 10.0 mi North - - N/A   Clear
11:15 PM 73.4 °F - 64.4 °F 73% 30.09 in 10.0 mi North - - N/A   Clear
11:35 PM 73.4 °F - 64.4 °F 73% 30.10 in 10.0 mi North - - N/A   Clear
11:55 PM 73.4 °F - 64.4 °F 73% 30.09 in 10.0 mi North - - N/A   Clear